Regional Weather Roundup
Issued by NWS Bismarck, ND

Home | Current Version | Previous Version | Text Only | Print | Product List | Glossary On
Versions: 1 2 3 4 5 6 7 8 9 10 11 12 13 14 15 16 17 18 19 20 21 22 23 24 25 26 27 28 29 30 31 32 33 34 35 36 37 38 39 40 41 42 43 44 45 46 47 48 49 50
000
ASUS43 KBIS 060020
RWRBIS

NWR BROADCAST TEXT
NATIONAL WEATHER SERVICE BISMARCK ND
600 PM CST THU MAR 05 2015

NOTE: "FAIR" INDICATES FEW OR NO CLOUDS BELOW 12,000 FEET WITH NO
SIGNIFICANT WEATHER AND/OR OBSTRUCTIONS TO VISIBILITY.


CITY           SKY/WX    TMP DP  RH WIND       PRES   REMARKS
WILLISTON      MOCLDY    40  20  44 W10       30.02S
MINOT          CLEAR     28  13  53 SW14G22   30.00S WCI  17
MINOT AFB      CLEAR     26  18  71 SW7       29.99S WCI  19
BISMARCK       CLEAR     38  14  37 W14       30.06R
DICKINSON      PTCLDY    40  12  32 W15       30.02R
GARRISON         N/A     28  16  60 W7        30.03S
HETTINGER ARPT CLEAR     41  11  29 NW15G25   30.06R
JAMESTOWN      CLEAR     26  12  55 S13       30.07F WCI  15
BEACH          FAIR      39  14  35 NW16      30.07R
CARRINGTON     FAIR      25  14  63 MISG      30.04F
CROSBY         FAIR      32  23  69 SW10      29.98F
HARVEY         FAIR      25  16  68 SW12      30.03R WCI  14
HAZEN          FAIR      36  10  35 W9        30.05S
LINTON         FAIR      34  14  44 S14       30.05S
MANDAN         FAIR      36  10  35 NW10G16   30.06R
OAKES            N/A     23  12  63 S15       30.16S WCI  10
RUGBY          FAIR      21  14  73 SW9       30.01S WCI  11
TIOGA          FAIR      28  18  64 SW8       30.02S
WATFORD CITY   FAIR      37  18  44 W7        30.01F
$$

CITY           SKY/WX    TMP DP  RH WIND       PRES   REMARKS
GRAND FORKS    PTCLDY    22  11  62 S15       30.11F WCI   9
GRAND FORKS AF CLEAR     24  10  54 SW14      30.08F WCI  12
DEVILS LAKE    CLEAR     21  12  68 SW13      30.02F WCI   9
FARGO          CLEAR     23   7  50 S20       30.19F WCI   8
CANDO          CLOUDY    21  14  73 SW12      30.01S WCI   9
CAVALIER       FAIR      27  12  54 S15G24    30.02F WCI  15
GWINNER        MOCLDY    23  12  63 S13       30.18S WCI  11
ROLLA          FAIR      19  10  68 SW21      29.95F WCI   3
WALHALLA         N/A     25  12  58 SW14G22   29.99F HAZE    WCI  13
$$

CITY           SKY/WX    TMP DP  RH WIND       PRES   REMARKS
ABERDEEN       CLEAR     26  13  57 S9        30.18S WCI  17
MOBRIDGE       CLEAR     34  14  43 S13       30.05S
BUFFALO          N/A     44  11  26 NW17      30.02R
RAPID CITY     CLEAR     43  17  35 N16       30.11R
GLASGOW        PTCLDY    46  16  30 W14       30.03R
SIDNEY         CLEAR     39  16  38 W3        30.08S
WOLF POINT     MOCLDY    46  18  32 S3        30.04S
GLENDIVE       CLEAR     41  14  33 NW7       30.08S
MILES CITY     PTCLDY    47  14  26 MISG      30.08R
BAKER          CLEAR     43  14  31 NW16      30.07S
$$

CITY           SKY/WX    TMP DP  RH WIND       PRES   REMARKS
BILLINGS       CLOUDY    45  14  28 SW17      30.12R
GREAT FALLS    SUNNY     47   9  21 SW21      30.10S
REGINA         PTCLDY    27  19  74 W13       29.96R WCI  16
ESTEVAN        MOCLDY    27  19  74 SW9       29.96F WCI  17
$$



USA.gov is the U.S. government's official web portal to all federal, state and local government web resources and services.